Weather History for Osceola Municipal, IA

Change the Weather History Date:

Thursday, November 1, 2012

  Actual Average (KLWD) Record (KLWD)
Temperature  
Mean Temperature 50 °F 47 °F  
Max Temperature 64 °F 57 °F 76 °F (1990)
Min Temperature 36 °F 37 °F 19 °F (2002)
Degree Days  
Heating Degree Days 16 18  
Month to date heating degree days 18  
Since 1 July heating degree days 502  
Cooling Degree Days 0 0  
Month to date cooling degree days 0  
Year to date cooling degree days 946  
Moisture  
Dew Point 36 °F    
Average Humidity 61    
Maximum Humidity 75    
Minimum Humidity 41    
Precipitation  
Precipitation 0.00 in 0.12 in 2.33 in (1971)
Month to date precipitation 0.12  
Sea Level Pressure  
Sea Level Pressure 29.95 in    
Wind  
Wind Speed 5 mph (WNW)    
Max Wind Speed 13 mph    
Max Gust Speed 17 mph    
Visibility 10 miles    
Events      
T = Trace of Precipitation, MM = Missing Value Source: NWS Daily Summary

Daily Weather History Graph

Daily Weather History Graph

Search for Another Location

Airport:

Trip Planner

Search our weather history database for the weather conditions in past years. The results will help you decide how hot, cold, wet, or windy it might be!

Date:

Astronomy

Nov. 01, 2012 Rise Set
Actual Time 7:46 AM CDT 6:09 PM CDT
Civil Twilight 7:17 AM CDT 6:38 PM CDT
Nautical Twilight 6:45 AM CDT 7:10 PM CDT
Astronomical Twilight 6:13 AM CDT 7:42 PM CDT
Moon 8:06 PM CDT (11/1) 10:20 AM CDT (11/1)
Length of Visible Light 11h 20m
Length of Day
10h 23m
Waning Gibbous, 93% of the Moon is Illuminated
Nov 1
Waning Gibbous
Nov 6
Last Quarter
Nov 13
New
Nov 20
First Quarter
Nov 28
Full

Hourly Weather History & Observations

Time (CDT) Temp. Windchill Dew Point Humidity Pressure Visibility Wind Dir Wind Speed Gust Speed Precip Events Conditions
12:15 AM 36.7 °F 34.1 °F 29.3 °F 75% 29.98 in 10.0 mi SW 3.5 mph - N/A   Clear
12:35 AM 38.5 °F 35.0 °F 29.3 °F 70% 29.98 in 10.0 mi WSW 4.6 mph - N/A   Clear
12:55 AM 39.2 °F 37.0 °F 29.3 °F 68% 29.98 in 10.0 mi WSW 3.5 mph - N/A   Clear
1:15 AM 39.0 °F 35.7 °F 29.8 °F 70% 29.98 in 10.0 mi WSW 4.6 mph - N/A   Clear
1:35 AM 38.5 °F 35.0 °F 30.6 °F 73% 29.98 in 10.0 mi WSW 4.6 mph - N/A   Clear
2:15 AM 40.6 °F 37.5 °F 33.1 °F 74% 29.97 in 10.0 mi SW 4.6 mph - N/A   Clear
2:35 AM 41.9 °F 38.2 °F 34.0 °F 73% 29.97 in 10.0 mi SW 5.8 mph - N/A   Mostly Cloudy
2:55 AM 42.8 °F 40.1 °F 33.6 °F 70% 29.97 in 10.0 mi SW 4.6 mph - N/A   Mostly Cloudy
3:15 AM 42.8 °F 40.1 °F 33.8 °F 70% 29.98 in 10.0 mi WSW 4.6 mph - N/A   Scattered Clouds
3:35 AM 43.3 °F 39.2 °F 33.8 °F 69% 29.97 in 10.0 mi WSW 6.9 mph - N/A   Scattered Clouds
4:15 AM 43.2 °F 41.5 °F 34.9 °F 73% 29.97 in 10.0 mi SW 3.5 mph - N/A   Clear
4:35 AM 43.3 °F 39.9 °F 34.9 °F 72% 29.96 in 10.0 mi SW 5.8 mph - N/A   Clear
5:15 AM 43.3 °F 40.7 °F 35.2 °F 73% 29.96 in 10.0 mi WSW 4.6 mph - N/A   Mostly Cloudy
5:35 AM 43.9 °F 42.3 °F 35.6 °F 73% 29.96 in 10.0 mi WSW 3.5 mph - N/A   Overcast
5:55 AM 44.1 °F 42.5 °F 35.8 °F 73% 29.95 in 10.0 mi WSW 3.5 mph - N/A   Overcast
6:15 AM 44.6 °F 43.1 °F 35.8 °F 71% 29.95 in 10.0 mi WSW 3.5 mph - N/A   Overcast
6:35 AM 44.8 °F 42.4 °F 36.0 °F 71% 29.95 in 10.0 mi WSW 4.6 mph - N/A   Overcast
7:15 AM 44.4 °F 40.5 °F 35.8 °F 72% 29.95 in 10.0 mi SW 6.9 mph - N/A   Overcast
7:35 AM 43.7 °F 40.3 °F 35.6 °F 73% 29.95 in 10.0 mi SW 5.8 mph - N/A   Overcast
8:35 AM 44.6 °F 40.7 °F 36.3 °F 73% 29.95 in 10.0 mi SW 6.9 mph - N/A   Overcast
8:55 AM 45.5 °F 43.2 °F 36.3 °F 70% 29.96 in 10.0 mi SW 4.6 mph - N/A   Overcast
9:15 AM 45.9 °F 42.3 °F 36.5 °F 70% 29.96 in 10.0 mi SW 6.9 mph - N/A   Overcast
9:35 AM 47.3 °F - 36.7 °F 67% 29.96 in 10.0 mi SW 6.9 mph - N/A   Mostly Cloudy
9:55 AM 51.4 °F - 36.9 °F 58% 29.96 in 10.0 mi WSW 5.8 mph - N/A   Scattered Clouds
10:15 AM 54.9 °F - 37.9 °F 53% 29.96 in 10.0 mi WNW 4.6 mph - N/A   Mostly Cloudy
10:35 AM 56.3 °F - 37.9 °F 50% 29.95 in 10.0 mi WNW 4.6 mph - N/A   Overcast
11:15 AM 57.2 °F - 37.6 °F 48% 29.96 in 10.0 mi North 4.6 mph - N/A   Overcast
11:35 AM 59.0 °F - 37.2 °F 44% 29.95 in 10.0 mi Calm Calm - N/A   Mostly Cloudy
11:55 AM 60.3 °F - 38.1 °F 44% 29.94 in 10.0 mi North 3.5 mph - N/A   Scattered Clouds
12:15 PM 61.0 °F - 37.8 °F 42% 29.95 in 10.0 mi NNW 4.6 mph - N/A   Scattered Clouds
12:35 PM 62.2 °F - 38.3 °F 41% 29.94 in 10.0 mi NNW 4.6 mph - N/A   Scattered Clouds
12:55 PM 63.0 °F - 39.4 °F 42% 29.93 in 10.0 mi North 5.8 mph - N/A   Clear
1:15 PM 62.8 °F - 39.2 °F 42% 29.92 in 10.0 mi North 4.6 mph - N/A   Clear
1:35 PM 63.3 °F - 39.2 °F 41% 29.92 in 10.0 mi NNW 8.1 mph - N/A   Clear
1:55 PM 63.7 °F - 39.4 °F 41% 29.91 in 7.0 mi NNW 4.6 mph - N/A   Clear
2:15 PM 63.9 °F - 39.6 °F 41% 29.91 in 10.0 mi NW 11.5 mph 17.3 mph N/A   Clear
2:35 PM 63.3 °F - 39.2 °F 41% 29.91 in 7.0 mi North 11.5 mph 16.1 mph N/A   Clear
2:55 PM 63.3 °F - 39.4 °F 41% 29.91 in 10.0 mi NW 11.5 mph 16.1 mph N/A   Clear
3:15 PM 62.1 °F - 39.9 °F 44% 29.91 in 10.0 mi NNW 8.1 mph - N/A   Clear
3:35 PM 61.5 °F - 39.9 °F 45% 29.91 in 10.0 mi NNW 10.4 mph - N/A   Clear
3:55 PM 60.8 °F - 40.1 °F 46% 29.92 in 10.0 mi NW 11.5 mph 16.1 mph N/A   Clear
4:15 PM 60.1 °F - 40.1 °F 48% 29.91 in 10.0 mi North 11.5 mph - N/A   Clear
4:35 PM 59.4 °F - 40.1 °F 49% 29.92 in 10.0 mi NNW 12.7 mph 16.1 mph N/A   Clear
4:55 PM 58.1 °F - 39.4 °F 50% 29.92 in 10.0 mi NW 12.7 mph - N/A   Clear
5:15 PM 57.0 °F - 39.4 °F 52% 29.93 in 10.0 mi NNW 10.4 mph - N/A   Clear
5:35 PM 55.2 °F - 39.2 °F 55% 29.93 in 7.0 mi NW 9.2 mph - N/A   Clear
5:55 PM 53.8 °F - 39.2 °F 58% 29.93 in 7.0 mi NW 6.9 mph - N/A   Clear
6:15 PM 51.8 °F - 38.3 °F 60% 29.93 in 7.0 mi NW 4.6 mph - N/A   Clear
6:35 PM 50.9 °F - 37.9 °F 61% 29.94 in 10.0 mi NW 8.1 mph - N/A   Clear
6:55 PM 48.9 °F - 37.9 °F 66% 29.95 in 10.0 mi NNW 8.1 mph - N/A   Clear
7:15 PM 47.1 °F - 36.7 °F 67% 29.95 in 10.0 mi NNW 5.8 mph - N/A   Clear
7:35 PM 46.6 °F - 36.1 °F 67% 29.95 in 10.0 mi NW 4.6 mph - N/A   Clear
7:55 PM 45.5 °F 43.2 °F 35.2 °F 67% 29.95 in 10.0 mi NNW 4.6 mph - N/A   Clear
8:15 PM 44.2 °F 41.8 °F 34.5 °F 69% 29.97 in 10.0 mi NW 4.6 mph - N/A   Clear
8:35 PM 42.8 °F 40.1 °F 33.8 °F 70% 29.96 in 10.0 mi NNW 4.6 mph - N/A   Clear
8:55 PM 42.8 °F - 33.1 °F 69% 29.96 in 10.0 mi Calm Calm - N/A   Clear
9:15 PM 42.3 °F 40.5 °F 32.9 °F 69% 29.96 in 10.0 mi NNW 3.5 mph - N/A   Clear
9:35 PM 41.5 °F 38.6 °F 32.4 °F 70% 29.97 in 10.0 mi NNW 4.6 mph - N/A   Clear
9:55 PM 43.5 °F 40.1 °F 32.4 °F 65% 29.98 in 10.0 mi North 5.8 mph - N/A   Clear
10:15 PM 42.8 °F 40.1 °F 32.0 °F 66% 29.98 in 10.0 mi North 4.6 mph - N/A   Clear
10:35 PM 41.9 °F 39.0 °F 32.0 °F 68% 29.98 in 10.0 mi North 4.6 mph - N/A   Clear
10:55 PM 41.4 °F 38.4 °F 32.0 °F 69% 29.98 in 10.0 mi North 4.6 mph - N/A   Clear
11:15 PM 41.4 °F 37.6 °F 32.0 °F 69% 29.99 in 10.0 mi North 5.8 mph - N/A   Clear
11:35 PM 40.6 °F 37.5 °F 31.8 °F 71% 29.99 in 10.0 mi NNE 4.6 mph - N/A   Clear
11:55 PM 39.7 °F 36.5 °F 31.6 °F 73% 30.00 in 10.0 mi North 4.6 mph - N/A   Clear